Location: Alfortville
(48.8058°N, 2.4204°E)
Time: 02:52:43
(UTC+00:00)

Envisat - Pass Details

Date: 03 December 2022
Orbit: 763 x 765 km, 98.2° (Epoch: 28 January)

Event Time Altitude Azimuth Distance (km) Brightness Sun altitude
Rises 04:18:54 0° 13° (NNE) 3,246 6.4 -29.6°
Reaches altitude 10° 04:21:13 10° 13° (NNE) 2,315 5.6 -29.3°
Enters shadow 04:23:37 29° 11° (NNE) 1,398 4.4 -28.9°
